Torna al catalogo

STARLINK-5950

AttivoComunicazioniVLEO
NORAD 56913·PAYLOAD·🇺🇸 United States

Lanciato Jun 12, 2023 da Cape Canaveral Space Force Station

Loading…

Prossimi Passaggi (prossime 24 ore)

TLE

AggiornatoSource: CelesTrak SupGP

Epoca: Sep 15, 2026, 02:32 UTC

1 56913C 23083AP  26258.10604167 -.00020289  00000+0 -73479-3 0  2581
2 56913  43.0019  80.8163 0001177 259.8528 276.6803 15.27593104    14

Traccia STARLINK-5950 in tempo reale con AllMySat

Download on the App Store